Regional Weather Roundup
Issued by NWS

Home | Current Version | Previous Version | Graphics & Text | Print | Product List | Glossary On
Versions: 1 2 3 4 5 6 7 8 9 10 11 12 13 14 15 16 17 18 19 20 21 22 23 24 25 26 27 28 29 30 31 32 33 34 35 36 37 38 39 40 41 42 43 44 45 46 47 48 49 50
000
ASUS45 KBOI 181510
RWRID

IDAHO REGIONAL WEATHER ROUNDUP
NATIONAL WEATHER SERVICE BOISE ID
900 AM MDT WED APR 18 2018

NOTE: "FAIR" INDICATES FEW OR NO CLOUDS BELOW 12000 FEET
WITH NO SIGNIFICANT WEATHER AND/OR OBSTRUCTIONS TO VISIBILITY

IDZ012-014-181600-
SOUTHWEST IDAHO


CITY           SKY/WX    TMP DP  RH WIND       PRES   REMARKS
BOISE          PTSUNNY   45  20  36 SE14      30.17F
CALDWELL       PTSUNNY   40  24  53 SE9       30.20S WCI  34
MOUNTAIN HOME  CLOUDY    35  22  60 SE15      30.18F WCI  25
$$

IDZ016-017-181600-
SOUTHCENTRAL IDAHO


CITY           SKY/WX    TMP DP  RH WIND       PRES   REMARKS
BURLEY         MOSUNNY   35  23  61 NE5       30.22R WCI  31
JEROME         SUNNY     36  23  59 NE18      30.20F WCI  26
TWIN FALLS     MOSUNNY   33  24  69 N6        30.20S WCI  28
$$

IDZ019>023-181600-
SOUTHEAST IDAHO


CITY           SKY/WX    TMP DP  RH WIND       PRES   REMARKS
IDAHO FALLS    SUNNY     33  22  63 NW6       30.27S WCI  28
POCATELLO      SUNNY     39  20  46 CALM      30.26R
REXBURG        SUNNY     35  24  64 MISG      30.27S
$$

IDZ006-010-011-018-031-032-181600-
CENTRAL IDAHO MOUNTAINS


CITY           SKY/WX    TMP DP  RH WIND       PRES   REMARKS
MCCALL         MOSUNNY   27  21  78 CALM      30.17S
HAILEY         MOSUNNY   28  14  54 NW9       30.24F WCI  20
STANLEY          N/A     20  14  77 NW3       30.21F
SALMON         SUNNY     32  27  81 NW3       30.27S
CHALLIS        SUNNY     32  16  51 VRB5      30.24R WCI  27
$$

IDZ002-004-006-007-026-181600-
NORTHERN IDAHO


CITY           SKY/WX    TMP DP  RH WIND       PRES   REMARKS
LEWISTON       CLOUDY    40  34  79 E5        30.25S
LOWELL           N/A     35  33  92 S3        30.31F
COEUR D`ALENE  MOSUNNY   38  32  79 S5        30.24S WCI  34
MULLAN PASS    PTSUNNY   24  23  96 VRB5      30.15R WCI  18
$$



USA.gov is the U.S. government's official web portal to all federal, state and local government web resources and services.